GW2175 Weather Reports


time (UTC)temp
C
wind
direction
speed
KPH
gust
KPH
rain 1hr
cm
rain 24hr
cm
rain mn
cm
humidity
%
barometer
mb
20260906023933 27 133 0.0 0.0 0.00 1.02 1.02 89 1014.5
20260906023429 28 144 1.6 1.6 0.00 1.02 1.02 88 1014.4
20260906022924 28 174 3.2 3.2 0.00 1.02 1.02 88 1014.5
20260906022419 28 155 1.6 1.6 0.00 1.02 1.02 88 1014.1
20260906021915 28 179 3.2 3.2 0.00 1.02 1.02 88 1014.2
20260906021414 28 180 3.2 3.2 0.00 1.02 1.02 87 1014.3
20260906020909 28 272 4.8 4.8 0.00 1.02 1.02 87 1014.2
20260906020403 28 218 4.8 4.8 0.00 1.02 1.02 87 1013.8
20260906015857 28 268 6.4 8.0 0.00 1.02 1.02 87 1014.1
20260906015356 28 198 4.8 8.0 0.00 1.02 1.02 87 1013.7
20260906014851 28 149 4.8 4.8 0.00 1.02 1.02 87 1013.8
20260906014351 28 169 3.2 3.2 0.00 1.02 1.02 87 1014.1
20260906013847 28 272 4.8 4.8 0.00 1.02 1.02 87 1013.9
20260906013342 28 159 3.2 3.2 0.00 1.02 1.02 87 1013.7
20260906012838 28 167 3.2 3.2 0.00 1.02 1.02 87 1013.8
20260906012333 28 190 4.8 4.8 0.00 1.02 1.02 86 1013.8
20260906011832 28 211 4.8 4.8 0.00 1.02 1.02 87 1013.8
20260906011327 28 155 3.2 8.0 0.00 1.02 1.02 87 1013.7
20260906010823 28 289 8.0 9.7 0.00 1.02 1.02 87 1013.7
20260906010319 28 276 8.0 9.7 0.00 1.02 1.02 87 1013.8
20260906005814 28 266 8.0 11.3 0.00 1.02 1.02 87 1013.8
20260906005313 28 159 4.8 4.8 0.00 1.02 1.02 87 1013.9
20260906004812 28 187 4.8 8.0 0.00 1.02 1.02 86 1013.7
20260906004312 28 244 4.8 8.0 0.00 1.02 1.02 86 1013.5
20260906003808 28 270 6.4 8.0 0.00 1.02 1.02 86 1013.7
20260906003303 28 151 3.2 4.8 0.00 1.02 1.02 87 1013.5
20260906002759 28 277 4.8 4.8 0.00 1.02 1.02 87 1013.8
20260906002258 28 157 3.2 3.2 0.00 1.02 1.02 88 1013.7
20260906001754 28 128 0.0 0.0 0.00 1.02 1.02 88 1013.8
20260906001248 28 127 1.6 1.6 0.00 1.02 1.02 88 1013.3
20260906000743 28 146 1.6 3.2 0.00 1.02 1.02 88 1013.6
20260906000238 28 126 0.0 0.0 0.00 1.02 1.02 88 1013.9
20260905235733 28 134 0.0 1.6 0.00 1.02 1.02 88 1014.1
20260905235233 28 121 0.0 1.6 0.00 1.02 1.02 88 1013.9
20260905234728 28 117 0.0 0.0 0.00 1.02 1.02 89 1014.1
20260905234224 28 117 0.0 0.0 0.00 1.02 1.02 88 1013.8
20260905233719 28 115 0.0 0.0 0.00 1.02 1.02 89 1013.8
20260905233218 28 119 0.0 0.0 0.00 1.02 1.02 89 1013.9
20260905232713 28 117 0.0 0.0 0.00 1.02 1.02 88 1013.8
20260905232209 28 114 0.0 0.0 0.00 1.02 1.02 89 1013.6
20260905231705 28 99 0.0 0.0 0.00 1.02 1.02 89 1013.5
20260905231200 28 113 0.0 0.0 0.00 1.02 1.02 89 1013.6
20260905230655 28 114 0.0 0.0 0.00 1.02 1.02 88 1013.5
20260905230154 28 113 0.0 0.0 0.00 1.02 1.02 88 1013.6
20260905225653 28 114 0.0 0.0 0.00 1.02 1.02 88 1013.4
20260905225148 28 117 0.0 0.0 0.00 1.02 1.02 88 1013.4
20260905224647 28 117 0.0 0.0 0.00 1.02 1.02 89 1013.3
20260905224142 29 114 0.0 0.0 0.00 1.02 1.02 87 1013.8
20260905223639 29 113 0.0 0.0 0.00 1.02 1.02 87 1013.9
20260905223135 29 107 0.0 0.0 0.00 1.02 1.02 87 1013.7
20260905222631 29 117 0.0 0.0 0.00 1.02 1.02 87 1013.7
20260905222125 29 121 0.0 0.0 0.00 1.02 1.02 88 1013.7
20260905221621 30 119 0.0 0.0 0.00 1.02 1.02 88 1013.9
20260905221118 29 116 0.0 0.0 0.00 1.02 1.02 87 1014.2
20260905220613 30 121 0.0 0.0 0.00 1.02 1.02 87 1014.2
20260905220109 30 121 0.0 0.0 0.00 1.02 1.02 86 1014.3
20260905215608 30 122 0.0 0.0 0.00 1.02 1.02 86 1014.1
20260905215104 30 123 0.0 0.0 0.00 1.02 1.02 87 1014.3
20260905214601 29 127 0.0 1.6 0.00 1.02 1.02 86 1014.3
20260905214101 30 176 4.8 4.8 0.00 1.02 1.02 87 1014.1
20260905213601 29 124 0.0 0.0 0.00 1.02 1.02 88 1014.1
20260905213057 29 116 0.0 0.0 0.00 1.02 1.02 88 1013.9
20260905212557 29 119 0.0 0.0 0.00 1.02 1.02 89 1014.2
20260905212056 29 116 0.0 0.0 0.00 1.02 1.02 88 1014.3
20260905211552 29 113 0.0 0.0 0.00 1.02 1.02 88 1014.5
20260905211047 29 114 0.0 0.0 0.00 1.02 1.02 88 1014.6
20260905210543 29 103 3.2 3.2 0.00 1.02 1.02 87 1014.7
20260905210038 29 110 0.0 0.0 0.00 1.02 1.02 89 1014.5
20260905205537 28 113 0.0 0.0 0.00 1.02 1.02 89 1014.2
20260905205037 29 117 0.0 0.0 0.13 1.02 1.02 89 1014.1
20260905204532 28 110 0.0 0.0 0.13 1.02 1.02 89 1014.3
20260905204026 28 67 1.6 1.6 0.13 1.02 1.02 90 1014.4
20260905203521 28 109 0.0 0.0 0.00 0.99 0.99 90 1014.4
20260905203016 28 121 0.0 0.0 0.00 0.99 0.99 91 1014.2
20260905202511 28 121 0.0 0.0 0.00 0.99 0.99 91 1014.5
20260905202007 27 121 0.0 0.0 0.00 0.99 0.99 90 1014.6
20260905201503 27 121 0.0 0.0 0.00 0.99 0.99 91 1014.2
20260905201002 27 121 0.0 0.0 0.00 0.99 0.99 91 1014.6
20260905200457 27 121 0.0 0.0 0.00 0.99 0.99 92 1014.6
20260905195956 27 123 0.0 0.0 0.00 0.99 0.99 92 1014.5
20260905195451 27 122 0.0 0.0 0.00 0.99 0.99 92 1014.5
20260905194947 28 122 0.0 0.0 0.00 0.99 0.99 92 1014.9
20260905194446 28 101 0.0 0.0 0.00 0.99 0.99 93 1014.9
20260905193941 28 110 0.0 0.0 0.00 0.99 0.99 93 1015.2
20260905193441 27 115 0.0 0.0 0.61 0.99 0.99 92 1014.9
20260905192936 26 108 0.0 0.0 2.77 0.99 0.99 93 1015.3
20260905192431 27 98 1.6 1.6 3.35 0.89 0.89 92 1015.4
20260905191926 27 82 1.6 1.6 1.98 0.53 0.53 92 1015.3
20260905191425 27 119 1.6 1.6 1.50 0.33 0.33 92 1015.4
20260905190920 28 88 1.6 1.6 0.97 0.18 0.18 91 1015.4
20260905190418 28 94 1.6 1.6 0.61 0.10 0.10 90 1015.4
20260905185916 29 120 0.0 0.0 0.13 0.03 0.03 88 1015.3
20260905185412 29 129 0.0 1.6 0.00 0.00 0.00 86 1015.5
20260905184911 29 175 3.2 3.2 0.00 0.00 0.00 84 1015.6
20260905184410 29 140 0.0 0.0 0.00 0.00 0.00 84 1015.5
20260905183909 29 207 4.8 8.0 0.00 0.00 0.00 85 1015.6
20260905183359 30 142 1.6 1.6 0.00 0.00 0.00 85 1015.6
20260905182854 30 188 3.2 3.2 0.00 0.00 0.00 84 1015.6
20260905182353 30 290 4.8 8.0 0.00 0.00 0.00 82 1015.7
20260905181849 30 249 4.8 8.0 0.00 0.00 0.00 82 1015.8
20260905181349 30 279 4.8 8.0 0.00 0.00 0.00 83 1016.2
20260905180848 30 98 0.0 0.0 0.00 0.00 0.00 80 1015.7
20260905180342 30 200 3.2 3.2 0.00 0.00 0.00 78 1015.9
20260905175832 31 272 4.8 4.8 0.00 0.00 0.00 77 1015.8
20260905175332 31 275 8.0 9.7 0.00 0.00 0.00 76 1015.8
20260905174827 31 255 4.8 8.0 0.00 0.00 0.00 76 1016.3
20260905174323 30 147 1.6 1.6 0.00 0.00 0.00 79 1016.0
20260905173818 30 129 1.6 1.6 0.00 0.00 0.00 80 1016.1
20260905173314 30 170 4.8 4.8 0.00 0.00 0.00 78 1016.3
20260905172814 30 167 3.2 3.2 0.00 0.00 0.00 77 1016.3
20260905172312 30 189 3.2 4.8 0.00 0.00 0.00 78 1016.3
20260905171809 30 140 0.0 0.0 0.00 0.00 0.00 80 1016.3
20260905171305 30 185 4.8 4.8 0.00 0.00 0.00 78 1016.3
20260905170801 30 243 4.8 8.0 0.00 0.00 0.00 80 1016.4
20260905170257 31 96 0.0 0.0 0.00 0.00 0.00 78 1016.5
20260905165756 30 140 0.0 0.0 0.00 0.00 0.00 79 1016.6
20260905165252 30 135 0.0 0.0 0.00 0.00 0.00 80 1016.3
20260905164752 30 155 0.0 0.0 0.00 0.00 0.00 83 1016.4
20260905164246 30 268 0.0 0.0 0.00 0.00 0.00 82 1016.7
20260905163742 30 252 8.0 9.7 0.00 0.00 0.00 81 1016.5
20260905163238 30 106 0.0 0.0 0.00 0.00 0.00 80 1016.7
20260905162734 29 138 0.0 0.0 0.00 0.00 0.00 85 1016.7
20260905162233 29 139 1.6 1.6 0.00 0.00 0.00 86 1016.5
20260905161728 30 130 0.0 0.0 0.00 0.00 0.00 84 1016.8
20260905161227 29 121 0.0 0.0 0.00 0.00 0.00 86 1016.5
20260905160725 30 126 0.0 0.0 0.00 0.00 0.00 85 1016.6
20260905160220 30 146 1.6 1.6 0.00 0.00 0.00 83 1016.6
20260905155714 30 106 0.0 0.0 0.00 0.00 0.00 82 1016.6
20260905155213 30 137 0.0 0.0 0.00 0.00 0.00 81 1016.6
20260905154708 30 234 0.0 0.0 0.00 0.00 0.00 84 1016.7
20260905154204 30 223 0.0 0.0 0.00 0.00 0.00 82 1016.7
20260905153659 30 139 0.0 0.0 0.00 0.00 0.00 80 1016.6
20260905153154 29 89 0.0 0.0 0.00 0.00 0.00 80 1016.7
20260905152649 29 1 4.8 4.8 0.00 0.00 0.00 81 1016.8
20260905152144 29 342 3.2 3.2 0.00 0.00 0.00 82 1016.7
20260905151639 29 155 1.6 3.2 0.00 0.00 0.00 83 1016.7
20260905151134 28 149 1.6 1.6 0.00 0.00 0.00 84 1016.6
20260905150629 29 137 1.6 1.6 0.00 0.00 0.00 83 1016.5
20260905150128 28 136 0.0 1.6 0.00 0.00 0.00 86 1016.8
20260905145626 29 126 1.6 1.6 0.00 0.00 0.00 84 1016.7
20260905145125 28 124 0.0 0.0 0.00 0.00 0.00 86 1016.6
20260905144620 28 117 0.0 0.0 0.00 0.00 0.00 87 1016.8
20260905144120 28 111 0.0 0.0 0.00 0.00 0.00 89 1016.6
20260905143614 27 135 0.0 1.6 0.00 0.00 0.00 89 1016.7
20260905143109 27 111 0.0 0.0 0.00 0.00 0.00 91 1016.7
20260905142607 27 122 0.0 0.0 0.00 0.00 0.00 91 1016.6
20260905142102 27 123 0.0 0.0 0.00 0.00 0.00 91 1016.7
20260905141602 27 133 0.0 1.6 0.00 0.00 0.00 91 1016.6
20260905141058 27 173 3.2 3.2 0.00 0.00 0.00 91 1016.5
20260905140553 27 159 3.2 3.2 0.00 0.00 0.00 92 1016.5
20260905140052 27 165 3.2 3.2 0.00 0.00 0.00 92 1016.7
20260905135548 26 128 0.0 0.0 0.00 0.00 0.00 92 1016.3
20260905135047 26 144 1.6 1.6 0.00 0.00 0.00 93 1016.7
20260905134543 26 190 3.2 3.2 0.00 0.00 0.00 93 1016.7
20260905134041 26 134 0.0 0.0 0.00 0.00 0.00 93 1016.5
20260905133537 26 132 0.0 0.0 0.00 0.00 0.00 94 1016.4
20260905133037 25 155 0.0 0.0 0.00 0.00 0.00 94 1016.5
20260905132537 25 135 0.0 0.0 0.00 0.00 0.00 94 1016.5
20260905132031 25 131 0.0 0.0 0.00 0.00 0.00 94 1016.4
20260905131527 25 139 0.0 0.0 0.00 0.00 0.00 95 1016.7
20260905131022 25 129 0.0 0.0 0.00 0.00 0.00 95 1016.4
20260905130521 25 130 0.0 0.0 0.00 0.00 0.00 95 1016.3
20260905130017 25 124 0.0 0.0 0.00 0.00 0.00 95 1016.4
20260905125516 25 122 0.0 0.0 0.00 0.00 0.00 95 1016.3
20260905125011 24 117 0.0 0.0 0.00 0.00 0.00 95 1016.4
20260905124508 24 116 0.0 0.0 0.00 0.00 0.00 95 1016.3
20260905124003 24 116 0.0 0.0 0.00 0.00 0.00 95 1016.1
20260905123459 24 117 0.0 0.0 0.00 0.00 0.00 95 1016.1
20260905122954 24 117 0.0 0.0 0.00 0.00 0.00 95 1016.3
20260905122449 24 113 0.0 0.0 0.00 0.00 0.00 95 1016.1
20260905121944 24 113 0.0 0.0 0.00 0.00 0.00 95 1016.1
20260905121439 24 116 0.0 0.0 0.00 0.00 0.00 95 1016.1
20260905120938 24 116 0.0 0.0 0.00 0.00 0.00 95 1016.1
20260905120428 24 116 0.0 0.0 0.00 0.00 0.00 95 1016.1
20260905115923 24 106 0.0 0.0 0.00 0.00 0.00 95 1016.0
20260905115422 24 114 0.0 0.0 0.00 0.00 0.00 95 1015.9
20260905114917 24 114 0.0 0.0 0.00 0.00 0.00 95 1015.9
20260905114416 24 114 0.0 0.0 0.00 0.00 0.00 95 1016.0
20260905113916 24 117 0.0 0.0 0.00 0.00 0.00 95 1015.9
20260905113411 24 118 0.0 0.0 0.00 0.00 0.00 95 1015.9
20260905112906 24 110 0.0 0.0 0.00 0.00 0.00 95 1015.7
20260905112402 24 110 0.0 0.0 0.00 0.00 0.00 95 1015.7
20260905111856 24 114 0.0 0.0 0.00 0.00 0.00 95 1015.6
20260905111351 24 114 0.0 0.0 0.00 0.00 0.00 95 1015.4
20260905110850 24 116 0.0 0.0 0.00 0.00 0.00 95 1015.6
20260905110344 24 113 0.0 0.0 0.00 0.00 0.00 95 1015.5
20260905105839 24 114 0.0 0.0 0.00 0.00 0.00 95 1015.4
20260905105339 24 113 0.0 0.0 0.00 0.00 0.00 95 1015.6
20260905104833 24 114 0.0 0.0 0.00 0.00 0.00 95 1015.5
20260905104330 24 114 0.0 0.0 0.00 0.00 0.00 95 1015.5
20260905103829 24 113 0.0 0.0 0.00 0.00 0.00 95 1015.6
20260905103325 24 112 0.0 0.0 0.00 0.00 0.00 95 1015.6
20260905102820 24 114 0.0 0.0 0.00 0.00 0.00 95 1015.6
20260905102317 24 114 0.0 0.0 0.00 0.00 0.00 95 1015.3
20260905101817 24 117 0.0 0.0 0.00 0.00 0.00 95 1015.6
20260905101315 24 117 0.0 0.0 0.00 0.00 0.00 95 1015.7
20260905100809 24 112 0.0 0.0 0.00 0.00 0.00 95 1015.7
20260905100306 24 108 0.0 0.0 0.00 0.00 0.00 94 1015.4
20260905095804 24 111 0.0 0.0 0.00 0.00 0.00 94 1015.5
20260905095259 24 114 0.0 0.0 0.00 0.00 0.00 94 1015.4
20260905094754 24 97 0.0 0.0 0.00 0.00 0.00 94 1015.5
20260905094250 24 111 0.0 0.0 0.00 0.00 0.00 94 1015.5
20260905093748 24 114 0.0 0.0 0.00 0.00 0.00 94 1015.5
20260905093244 24 114 0.0 0.0 0.00 0.00 0.00 94 1015.4
20260905092739 24 119 0.0 0.0 0.00 0.00 0.00 94 1015.2
20260905092235 24 109 0.0 0.0 0.00 0.00 0.00 94 1015.2
20260905091735 24 113 0.0 0.0 0.00 0.00 0.00 94 1015.4
20260905091229 24 114 0.0 0.0 0.00 0.00 0.00 94 1015.5
20260905090723 24 114 0.0 0.0 0.00 0.00 0.00 94 1015.3
20260905090219 24 114 0.0 0.0 0.00 0.00 0.00 94 1015.2
20260905085718 24 120 0.0 0.0 0.00 0.00 0.00 94 1015.5
20260905085213 24 114 0.0 0.0 0.00 0.00 0.00 94 1015.2
20260905084712 24 110 0.0 0.0 0.00 0.00 0.00 94 1015.3
20260905084206 24 112 0.0 0.0 0.00 0.00 0.00 94 1015.2
20260905083701 25 105 0.0 0.0 0.00 0.00 0.00 94 1015.3
20260905083158 25 116 0.0 0.0 0.00 0.00 0.00 94 1015.3
20260905082653 25 117 0.0 0.0 0.00 0.00 0.00 94 1015.4
20260905082148 25 110 0.0 0.0 0.00 0.00 0.00 94 1015.2
20260905081643 25 112 0.0 0.0 0.00 0.00 0.00 94 1015.1
20260905081138 25 103 0.0 0.0 0.00 0.00 0.00 94 1015.3
20260905080632 25 112 0.0 0.0 0.00 0.00 0.00 94 1015.1
20260905080127 25 104 0.0 0.0 0.00 0.00 0.00 94 1015.1
20260905075626 25 118 0.0 0.0 0.00 0.00 0.00 94 1014.9
20260905075125 25 123 0.0 0.0 0.00 0.00 0.00 94 1015.2
20260905074625 25 114 0.0 0.0 0.00 0.00 0.00 94 1015.2
20260905074120 25 120 0.0 0.0 0.00 0.00 0.00 94 1015.1
20260905073616 25 116 0.0 0.0 0.00 0.00 0.00 94 1015.1
20260905073112 25 113 0.0 0.0 0.00 0.00 0.00 94 1015.3
20260905072611 25 120 0.0 0.0 0.00 0.00 0.00 94 1015.3
20260905072106 25 116 0.0 0.0 0.00 0.00 0.00 94 1015.2
20260905071603 25 116 0.0 0.0 0.00 0.00 0.00 94 1015.2
20260905071103 25 113 0.0 0.0 0.00 0.00 0.00 94 1015.1
20260905070558 25 116 0.0 0.0 0.00 0.00 0.00 94 1015.3
20260905070054 25 115 0.0 0.0 0.00 0.00 0.00 94 1015.2
20260905065552 25 111 0.0 0.0 0.00 0.00 0.00 94 1015.1
20260905065047 25 114 0.0 0.0 0.00 0.00 0.00 94 1015.1
20260905064542 25 109 0.0 0.0 0.00 0.00 0.00 94 1015.0
20260905064038 25 115 0.0 0.0 0.00 0.00 0.00 94 1015.2
20260905063536 25 113 0.0 0.0 0.00 0.00 0.00 94 1015.1
20260905063033 25 118 0.0 0.0 0.00 0.00 0.00 94 1015.2
20260905062532 25 111 0.0 0.0 0.00 0.00 0.00 94 1015.1
20260905062027 25 110 0.0 0.0 0.00 0.00 0.00 94 1015.1
20260905061522 25 113 0.0 0.0 0.00 0.00 0.00 94 1015.2
20260905061021 25 113 0.0 0.0 0.00 0.00 0.00 94 1014.9
20260905060518 25 136 1.6 3.2 0.00 0.00 0.00 94 1015.0
20260905060013 25 116 0.0 0.0 0.00 0.00 0.00 94 1015.0
20260905055511 25 137 0.0 0.0 0.00 0.00 0.00 94 1015.2
20260905055006 25 130 0.0 0.0 0.00 0.00 0.00 94 1015.1
20260905054502 25 111 0.0 0.0 0.00 0.00 0.00 94 1015.1
20260905053957 25 117 0.0 0.0 0.00 0.00 0.00 94 1015.0
20260905053452 25 113 0.0 0.0 0.00 0.00 0.00 94 1015.1
20260905052948 25 119 0.0 0.0 0.00 0.00 0.00 94 1015.2
20260905052447 25 115 0.0 0.0 0.00 0.00 0.00 94 1015.2
20260905051947 25 118 0.0 0.0 0.00 0.00 0.00 94 1015.2
20260905051442 24 124 0.0 0.0 0.00 0.00 0.00 94 1015.4
20260905050939 24 107 0.0 0.0 0.00 0.00 0.00 94 1015.4
20260905050435 24 123 0.0 0.0 0.00 0.00 0.00 94 1015.5
20260905045931 24 121 0.0 0.0 0.00 0.41 0.41 94 1015.4
20260905045425 24 117 0.0 0.0 0.00 0.41 0.41 94 1015.6
20260905044920 24 117 0.0 0.0 0.00 0.41 0.41 94 1015.8
20260905044410 24 121 0.0 0.0 0.00 0.41 0.41 94 1015.9
20260905043909 24 116 0.0 0.0 0.00 0.41 0.41 94 1015.9
20260905043404 24 117 0.0 0.0 0.00 0.41 0.41 94 1016.0
20260905042904 24 130 0.0 0.0 0.00 0.41 0.41 94 1016.0
20260905042358 24 117 0.0 0.0 0.00 0.41 0.41 94 1016.0
20260905041853 24 115 0.0 0.0 0.00 0.41 0.41 94 1016.1
20260905041349 24 110 0.0 0.0 0.00 0.41 0.41 94 1016.2
20260905040844 24 112 0.0 0.0 0.00 0.41 0.41 94 1016.1
20260905040343 24 109 0.0 0.0 0.00 0.41 0.41 94 1016.3
20260905035842 24 112 0.0 0.0 0.00 0.41 0.41 94 1016.1
20260905035338 24 106 0.0 0.0 0.00 0.41 0.41 94 1016.2
20260905034834 24 112 0.0 0.0 0.00 0.41 0.41 94 1016.4
20260905034330 24 111 0.0 0.0 0.00 0.41 0.41 94 1016.6
20260905033828 24 121 0.0 0.0 0.00 0.41 0.41 94 1016.6
20260905033324 24 113 0.0 0.0 0.00 0.41 0.41 94 1016.6
20260905032823 24 111 0.0 0.0 0.00 0.41 0.41 94 1016.5
20260905032319 24 117 0.0 0.0 0.00 0.41 0.41 94 1016.5
20260905031814 24 116 0.0 0.0 0.00 0.41 0.41 93 1016.5
20260905031310 24 115 0.0 0.0 0.00 0.41 0.41 93 1016.6
20260905030805 24 109 0.0 0.0 0.00 0.41 0.41 93 1016.5
20260905030300 24 117 0.0 0.0 0.00 0.41 0.41 93 1016.5
20260905025759 24 120 0.0 0.0 0.00 0.41 0.41 93 1016.4
20260905025255 24 121 0.0 0.0 0.00 0.41 0.41 93 1016.6
20260905024751 24 123 0.0 0.0 0.00 0.41 0.41 94 1016.3